Content
SEND FEEDBACK

Daily
Averages
Monthly
Summary
United States of America

GREENSBURG, INDIANA


Home > North America > United States > Indiana
Elevation: 949 feet     Latitude: 39 20N     Longitude: 085 28W

WEATHER
 
SELECT A DAY
Number of Records: 172,848;   Date Range: 10/15/98 - 7/29/14
 
SHARE

PRINT THIS DATA

[ ← Previous Day ]
WEATHER ALMANAC - APRIL 16, 2014
[ Next Day → ]
[ °C ]   °F
Weather ElementAverageHighLow
Temperature39.7 °F52 °F (4:53 pm)30 °F (2:53 am)
Dewpoint21.3 °F26.1 °F (10:53 pm)18 °F (5:53 am)
Humidity49.7 %69 % (2:53 am)32 % (4:53 pm)
Barometer30.33 in30.41 in (8:53 am)30.24 in (6:53 pm)
Wind Speed10 mph16.1 mph (3:53 pm)
Wind Gust21.9 mph (3:53 pm)
Weather ElementAverage
Visibility10 mi
Wind DirectionESE (126.2 °)

Weather ElementTotal
Precipitation---
Heating Degree Days24 (Base 65)
Averaged from 21 records on April 16, 2014
WEATHER CONDITIONS BREAKOUT
WIND DIRECTION BREAKOUT
WEATHER BY HOUR - APRIL 16, 2014
[ °C ]   °F
Local TimeTemperatureDewpointHumidityBarometerVisibilityWind DirectionWind SpeedGust SpeedPrecipitationEventsConditions
1:53 AM30.9 °F21.0 °F67 %30.29 in10.0 miESE (110°)4.6 mphClear
2:53 AM30.0 °F21.0 °F69 %30.30 in10.0 miESE (110°)5.8 mphClear
3:53 AM30.0 °F19.0 °F64 %30.33 in10.0 miSE (130°)5.8 mphClear
4:53 AM30.0 °F19.0 °F64 %30.35 in10.0 miSE (130°)5.8 mphClear
5:53 AM30.0 °F18.0 °F61 %30.36 in10.0 miSE (130°)6.9 mphClear
6:53 AM30.0 °F18.0 °F61 %30.37 in10.0 miSE (130°)9.2 mphClear
7:53 AM30.9 °F18.0 °F59 %30.39 in10.0 miSE (140°)9.2 mphClear
8:53 AM34.0 °F19.0 °F54 %30.41 in10.0 miSE (140°)10.4 mphClear
9:53 AM37.0 °F18.0 °F46 %30.40 in10.0 miSE (130°)13.8 mphClear
10:53 AM39.9 °F19.9 °F45 %30.40 in10.0 miSE (130°)11.5 mphClear
11:53 AM42.1 °F19.9 °F41 %30.41 in10.0 miESE (120°)12.7 mphClear
12:53 PM45.0 °F21.9 °F40 %30.39 in10.0 miSSE (150°)11.5 mphClear
2:53 PM48.9 °F21.9 °F35 %30.35 in10.0 miSE (130°)11.5 mph20.7 mphClear
3:53 PM51.1 °F23.0 °F33 %30.31 in10.0 miSE (130°)16.1 mph21.9 mphClear
4:53 PM52.0 °F23.0 °F32 %30.28 in10.0 miSSE (150°)16.1 mphClear
6:53 PM51.1 °F21.9 °F32 %30.24 in10.0 miSE (130°)15.0 mphClear
7:53 PM48.9 °F24.1 °F38 %30.24 in10.0 miESE (120°)11.5 mphClear
8:53 PM46.9 °F24.1 °F41 %30.24 in10.0 miESE (120°)9.2 mphClear
9:53 PM44.1 °F25.0 °F47 %30.25 in10.0 miESE (110°)9.2 mphClear
10:53 PM42.1 °F26.1 °F53 %30.26 in10.0 miESE (110°)8.1 mphClear
11:53 PM37.9 °F26.1 °F62 %30.26 in10.0 miEast (100°)6.9 mphClear
Hourly data recorded from KGEZ, located miles away from Greensburg, Indiana







STORIES FROM OUR PARTNERS